Time,TemperatureF,DewpointF,PressureIn,WindDirection,WindDirectionDegrees,WindSpeedMPH,WindSpeedGustMPH,Humidity,HourlyPrecipIn,Conditions,Clouds,dailyrainin,SoftwareType,DateUTC
2013-11-26 00:00:00,30.7,6.9,30.21,East,90,2.0,7.0,36,0.00,,,-99.99,WeatherLink 5.5,2013-11-26 05:00:00,
2013-11-26 00:05:00,30.7,7.5,30.20,SE,135,0.0,2.0,37,0.00,,,-99.99,WeatherLink 5.5,2013-11-26 05:05:00,
2013-11-26 00:10:00,30.7,7.5,30.20,East,90,1.0,4.0,37,0.00,,,-99.99,WeatherLink 5.5,2013-11-26 05:10:00,
2013-11-26 00:15:00,30.7,7.5,30.20,East,90,1.0,4.0,37,0.00,,,-99.99,WeatherLink 5.5,2013-11-26 05:15:00,
2013-11-26 00:20:00,30.7,8.1,30.20,SSE,157,1.0,6.0,38,0.00,,,-99.99,WeatherLink 5.5,2013-11-26 05:20:00,
2013-11-26 00:25:00,30.7,8.6,30.20,ESE,112,0.0,4.0,39,0.00,,,-99.99,WeatherLink 5.5,2013-11-26 05:25:00,
2013-11-26 00:30:00,30.7,8.6,30.20,ESE,112,0.0,4.0,39,0.00,,,-99.99,WeatherLink 5.5,2013-11-26 05:30:00,
2013-11-26 00:35:00,30.9,8.2,30.21,SSE,157,1.0,7.0,38,0.00,,,-99.99,WeatherLink 5.5,2013-11-26 05:35:00,
2013-11-26 00:40:00,30.9,8.2,30.21,East,90,1.0,7.0,38,0.00,,,-99.99,WeatherLink 5.5,2013-11-26 05:40:00,
2013-11-26 00:45:00,30.9,8.2,30.21,East,90,1.0,7.0,38,0.00,,,-99.99,WeatherLink 5.5,2013-11-26 05:45:00,
2013-11-26 00:50:00,31.0,8.3,30.21,SE,135,1.0,7.0,38,0.00,,,-99.99,WeatherLink 5.5,2013-11-26 05:50:00,
2013-11-26 00:55:00,31.0,8.3,30.21,SSW,202,1.0,8.0,38,0.00,,,-99.99,WeatherLink 5.5,2013-11-26 05:55:00,
2013-11-26 01:00:00,31.0,8.3,30.21,SSW,202,1.0,8.0,38,0.00,,,-99.99,WeatherLink 5.5,2013-11-26 06:00:00,
2013-11-26 01:05:00,31.0,8.9,30.20,SE,135,0.0,4.0,39,0.00,,,-99.99,WeatherLink 5.5,2013-11-26 06:05:00,
2013-11-26 01:10:00,31.2,8.5,30.20,SE,135,1.0,6.0,38,0.00,,,-99.99,WeatherLink 5.5,2013-11-26 06:10:00,
2013-11-26 01:15:00,31.2,8.5,30.20,SE,135,1.0,6.0,38,0.00,,,-99.99,WeatherLink 5.5,2013-11-26 06:15:00,
2013-11-26 01:20:00,31.2,8.5,30.20,SSE,157,1.0,7.0,38,0.00,,,-99.99,WeatherLink 5.5,2013-11-26 06:20:00,
2013-11-26 01:25:00,31.2,8.5,30.20,North,-999,0.0,0.0,38,0.00,,,-99.99,WeatherLink 5.5,2013-11-26 06:25:00,
2013-11-26 01:30:00,31.2,8.5,30.20,North,-999,0.0,0.0,38,0.00,,,-99.99,WeatherLink 5.5,2013-11-26 06:30:00,
2013-11-26 01:35:00,31.0,8.9,30.20,SE,135,0.0,1.0,39,0.00,,,-99.99,WeatherLink 5.5,2013-11-26 06:35:00,
2013-11-26 01:40:00,31.0,8.3,30.20,South,180,0.0,2.0,38,0.00,,,-99.99,WeatherLink 5.5,2013-11-26 06:40:00,
2013-11-26 01:45:00,31.0,8.3,30.20,South,180,0.0,2.0,38,0.00,,,-99.99,WeatherLink 5.5,2013-11-26 06:45:00,
2013-11-26 01:50:00,31.0,8.3,30.21,SSE,157,0.0,2.0,38,0.00,,,-99.99,WeatherLink 5.5,2013-11-26 06:50:00,
2013-11-26 01:55:00,31.0,8.3,30.21,SSE,157,0.0,4.0,38,0.00,,,-99.99,WeatherLink 5.5,2013-11-26 06:55:00,
2013-11-26 02:00:00,31.0,8.3,30.21,SSE,157,0.0,4.0,38,0.00,,,-99.99,WeatherLink 5.5,2013-11-26 07:00:00,
2013-11-26 02:05:00,31.0,8.3,30.21,SSE,157,0.0,1.0,38,0.00,,,-99.99,WeatherLink 5.5,2013-11-26 07:05:00,
2013-11-26 02:10:00,31.0,8.3,30.21,North,-999,0.0,0.0,38,0.00,,,-99.99,WeatherLink 5.5,2013-11-26 07:10:00,
2013-11-26 02:15:00,31.0,8.3,30.21,North,-999,0.0,0.0,38,0.00,,,-99.99,WeatherLink 5.5,2013-11-26 07:15:00,
2013-11-26 02:20:00,30.9,8.2,30.22,North,-999,0.0,0.0,38,0.00,,,-99.99,WeatherLink 5.5,2013-11-26 07:20:00,
2013-11-26 02:25:00,30.7,8.6,30.22,North,-999,0.0,0.0,39,0.00,,,-99.99,WeatherLink 5.5,2013-11-26 07:25:00,
2013-11-26 02:30:00,30.7,8.6,30.22,North,-999,0.0,0.0,39,0.00,,,-99.99,WeatherLink 5.5,2013-11-26 07:30:00,
2013-11-26 02:35:00,30.6,8.5,30.23,North,-999,0.0,0.0,39,0.00,,,-99.99,WeatherLink 5.5,2013-11-26 07:35:00,
2013-11-26 02:40:00,30.4,8.4,30.23,SSE,157,0.0,1.0,39,0.00,,,-99.99,WeatherLink 5.5,2013-11-26 07:40:00,
2013-11-26 02:45:00,30.4,8.4,30.23,SSE,157,0.0,1.0,39,0.00,,,-99.99,WeatherLink 5.5,2013-11-26 07:45:00,
2013-11-26 02:50:00,30.4,8.4,30.22,North,-999,0.0,0.0,39,0.00,,,-99.99,WeatherLink 5.5,2013-11-26 07:50:00,
2013-11-26 02:55:00,30.4,7.8,30.22,SE,135,0.0,2.0,38,0.00,,,-99.99,WeatherLink 5.5,2013-11-26 07:55:00,
2013-11-26 03:00:00,30.4,7.8,30.22,SE,135,0.0,2.0,38,0.00,,,-99.99,WeatherLink 5.5,2013-11-26 08:00:00,
2013-11-26 03:05:00,30.6,7.4,30.21,SSE,157,0.0,4.0,37,0.00,,,-99.99,WeatherLink 5.5,2013-11-26 08:05:00,
2013-11-26 03:10:00,30.6,7.4,30.21,ESE,112,0.0,4.0,37,0.00,,,-99.99,WeatherLink 5.5,2013-11-26 08:10:00,
2013-11-26 03:15:00,30.6,7.4,30.21,ESE,112,0.0,4.0,37,0.00,,,-99.99,WeatherLink 5.5,2013-11-26 08:15:00,
2013-11-26 03:20:00,30.9,7.0,30.21,SE,135,0.0,7.0,36,0.00,,,-99.99,WeatherLink 5.5,2013-11-26 08:20:00,
2013-11-26 03:25:00,30.9,7.0,30.21,SE,135,0.0,1.0,36,0.00,,,-99.99,WeatherLink 5.5,2013-11-26 08:25:00,
2013-11-26 03:30:00,30.9,7.0,30.21,SE,135,0.0,1.0,36,0.00,,,-99.99,WeatherLink 5.5,2013-11-26 08:30:00,
2013-11-26 03:35:00,30.9,7.0,30.21,North,-999,0.0,0.0,36,0.00,,,-99.99,WeatherLink 5.5,2013-11-26 08:35:00,
2013-11-26 03:40:00,31.0,6.5,30.21,ESE,112,1.0,6.0,35,0.00,,,-99.99,WeatherLink 5.5,2013-11-26 08:40:00,
2013-11-26 03:45:00,31.0,6.5,30.21,ESE,112,1.0,6.0,35,0.00,,,-99.99,WeatherLink 5.5,2013-11-26 08:45:00,
2013-11-26 03:50:00,31.2,6.7,30.21,ESE,112,0.0,2.0,35,0.00,,,-99.99,WeatherLink 5.5,2013-11-26 08:50:00,
2013-11-26 03:55:00,31.2,6.7,30.21,ESE,112,0.0,2.0,35,0.00,,,-99.99,WeatherLink 5.5,2013-11-26 08:55:00,
2013-11-26 04:00:00,31.2,6.7,30.21,ESE,112,0.0,2.0,35,0.00,,,-99.99,WeatherLink 5.5,2013-11-26 09:00:00,
2013-11-26 04:05:00,31.2,6.7,30.21,North,-999,0.0,0.0,35,0.00,,,-99.99,WeatherLink 5.5,2013-11-26 09:05:00,
2013-11-26 04:10:00,31.0,6.5,30.21,ESE,112,0.0,1.0,35,0.00,,,-99.99,WeatherLink 5.5,2013-11-26 09:10:00,
2013-11-26 04:15:00,31.0,6.5,30.21,ESE,112,0.0,1.0,35,0.00,,,-99.99,WeatherLink 5.5,2013-11-26 09:15:00,
2013-11-26 04:20:00,31.0,6.5,30.22,North,-999,0.0,0.0,35,0.00,,,-99.99,WeatherLink 5.5,2013-11-26 09:20:00,
2013-11-26 04:25:00,31.0,6.5,30.22,ESE,112,0.0,2.0,35,0.00,,,-99.99,WeatherLink 5.5,2013-11-26 09:25:00,
2013-11-26 04:30:00,31.0,6.5,30.22,ESE,112,0.0,2.0,35,0.00,,,-99.99,WeatherLink 5.5,2013-11-26 09:30:00,
2013-11-26 04:35:00,31.2,6.7,30.21,ESE,112,0.0,4.0,35,0.00,,,-99.99,WeatherLink 5.5,2013-11-26 09:35:00,
2013-11-26 04:40:00,31.2,6.7,30.21,ESE,112,0.0,6.0,35,0.00,,,-99.99,WeatherLink 5.5,2013-11-26 09:40:00,
2013-11-26 04:45:00,31.2,6.7,30.21,ESE,112,0.0,6.0,35,0.00,,,-99.99,WeatherLink 5.5,2013-11-26 09:45:00,
2013-11-26 04:50:00,31.2,6.7,30.23,SE,135,1.0,7.0,35,0.00,,,-99.99,WeatherLink 5.5,2013-11-26 09:50:00,
2013-11-26 04:55:00,31.3,6.8,30.23,ESE,112,0.0,8.0,35,0.00,,,-99.99,WeatherLink 5.5,2013-11-26 09:55:00,
2013-11-26 05:00:00,31.3,6.8,30.23,SSE,157,1.0,7.0,35,0.00,,,-99.99,WeatherLink 5.5,2013-11-26 10:00:00,
2013-11-26 05:01:00,31.3,6.8,30.23,ESE,112,0.0,8.0,35,0.00,,,-99.99,WeatherLink 5.5,2013-11-26 10:01:00,
2013-11-26 05:05:00,31.3,6.8,30.23,SSE,157,0.0,1.0,35,0.00,,,-99.99,WeatherLink 5.5,2013-11-26 10:05:00,
2013-11-26 05:10:00,31.5,6.3,30.23,South,180,1.0,6.0,34,0.00,,,-99.99,WeatherLink 5.5,2013-11-26 10:10:00,
2013-11-26 05:15:00,31.5,6.3,30.23,South,180,1.0,6.0,34,0.00,,,-99.99,WeatherLink 5.5,2013-11-26 10:15:00,
2013-11-26 05:20:00,31.5,6.3,30.23,South,180,0.0,2.0,34,0.00,,,-99.99,WeatherLink 5.5,2013-11-26 10:20:00,
2013-11-26 05:25:00,31.5,6.3,30.23,North,-999,0.0,0.0,34,0.00,,,-99.99,WeatherLink 5.5,2013-11-26 10:25:00,
2013-11-26 05:30:00,31.5,6.3,30.23,North,-999,0.0,0.0,34,0.00,,,-99.99,WeatherLink 5.5,2013-11-26 10:30:00,
2013-11-26 05:35:00,31.5,6.9,30.23,North,-999,0.0,0.0,35,0.00,,,-99.99,WeatherLink 5.5,2013-11-26 10:35:00,
2013-11-26 05:40:00,31.5,6.9,30.23,SSE,157,0.0,2.0,35,0.00,,,-99.99,WeatherLink 5.5,2013-11-26 10:40:00,
2013-11-26 05:45:00,31.5,6.9,30.23,SSE,157,0.0,2.0,35,0.00,,,-99.99,WeatherLink 5.5,2013-11-26 10:45:00,
2013-11-26 05:50:00,31.5,6.3,30.24,SSE,157,0.0,4.0,34,0.00,,,-99.99,WeatherLink 5.5,2013-11-26 10:50:00,
2013-11-26 05:55:00,31.5,6.9,30.24,North,-999,0.0,0.0,35,0.00,,,-99.99,WeatherLink 5.5,2013-11-26 10:55:00,
2013-11-26 06:00:00,31.5,6.9,30.24,North,-999,0.0,0.0,35,0.00,,,-99.99,WeatherLink 5.5,2013-11-26 11:00:00,
2013-11-26 06:05:00,31.5,6.9,30.24,SSE,157,0.0,1.0,35,0.00,,,-99.99,WeatherLink 5.5,2013-11-26 11:05:00,
2013-11-26 06:10:00,31.3,6.8,30.24,North,-999,0.0,0.0,35,0.00,,,-99.99,WeatherLink 5.5,2013-11-26 11:10:00,
2013-11-26 06:15:00,31.3,6.8,30.24,North,-999,0.0,0.0,35,0.00,,,-99.99,WeatherLink 5.5,2013-11-26 11:15:00,
2013-11-26 06:20:00,31.3,6.8,30.24,North,-999,0.0,0.0,35,0.00,,,-99.99,WeatherLink 5.5,2013-11-26 11:20:00,
2013-11-26 06:25:00,31.3,6.8,30.24,North,-999,0.0,0.0,35,0.00,,,-99.99,WeatherLink 5.5,2013-11-26 11:25:00,
2013-11-26 06:30:00,31.3,6.8,30.24,North,-999,0.0,0.0,35,0.00,,,-99.99,WeatherLink 5.5,2013-11-26 11:30:00,
2013-11-26 06:35:00,31.3,8.6,30.24,SSE,157,1.0,7.0,38,0.00,,,-99.99,WeatherLink 5.5,2013-11-26 11:35:00,
2013-11-26 06:40:00,31.2,10.2,30.24,East,90,1.0,7.0,41,0.00,,,-99.99,WeatherLink 5.5,2013-11-26 11:40:00,
2013-11-26 06:45:00,31.2,10.2,30.24,East,90,1.0,7.0,41,0.00,,,-99.99,WeatherLink 5.5,2013-11-26 11:45:00,
2013-11-26 06:50:00,30.9,12.5,30.26,SSE,157,2.0,7.0,46,0.00,,,-99.99,WeatherLink 5.5,2013-11-26 11:50:00,
2013-11-26 06:55:00,30.6,12.2,30.26,SSE,157,1.0,8.0,46,0.00,,,-99.99,WeatherLink 5.5,2013-11-26 11:55:00,
2013-11-26 07:00:00,30.6,12.2,30.26,SSE,157,1.0,8.0,46,0.00,,,-99.99,WeatherLink 5.5,2013-11-26 12:00:00,
2013-11-26 07:05:00,29.8,16.0,30.27,SE,135,0.0,6.0,56,0.00,,,-99.99,WeatherLink 5.5,2013-11-26 12:05:00,
2013-11-26 07:10:00,29.7,16.3,30.27,South,180,1.0,7.0,57,0.00,,,-99.99,WeatherLink 5.5,2013-11-26 12:10:00,
2013-11-26 07:15:00,29.7,16.3,30.27,South,180,1.0,7.0,57,0.00,,,-99.99,WeatherLink 5.5,2013-11-26 12:15:00,
2013-11-26 07:20:00,29.4,17.2,30.26,SSE,157,0.0,1.0,60,0.00,,,-99.99,WeatherLink 5.5,2013-11-26 12:20:00,
2013-11-26 07:25:00,29.1,18.4,30.26,SSE,157,1.0,7.0,64,0.00,,,-99.99,WeatherLink 5.5,2013-11-26 12:25:00,
2013-11-26 07:30:00,29.1,18.4,30.26,SSE,157,1.0,7.0,64,0.00,,,-99.99,WeatherLink 5.5,2013-11-26 12:30:00,
2013-11-26 07:35:00,28.5,19.6,30.27,WSW,247,0.0,1.0,69,0.00,,,-99.99,WeatherLink 5.5,2013-11-26 12:35:00,
2013-11-26 07:40:00,28.4,20.2,30.27,North,-999,0.0,0.0,71,0.00,,,-99.99,WeatherLink 5.5,2013-11-26 12:40:00,
2013-11-26 07:45:00,28.4,20.2,30.27,North,-999,0.0,0.0,71,0.00,,,-99.99,WeatherLink 5.5,2013-11-26 12:45:00,
2013-11-26 07:50:00,28.2,20.7,30.27,South,180,0.0,1.0,73,0.00,,,-99.99,WeatherLink 5.5,2013-11-26 12:50:00,
2013-11-26 07:55:00,28.1,20.6,30.27,SE,135,0.0,6.0,73,0.00,,,-99.99,WeatherLink 5.5,2013-11-26 12:55:00,
2013-11-26 08:00:00,28.1,20.6,30.27,SE,135,0.0,6.0,73,0.00,,,-99.99,WeatherLink 5.5,2013-11-26 13:00:00,
2013-11-26 08:05:00,28.2,21.0,30.30,North,-999,0.0,0.0,74,0.00,,,-99.99,WeatherLink 5.5,2013-11-26 13:05:00,
2013-11-26 08:10:00,28.2,21.0,30.30,SSE,157,0.0,6.0,74,0.00,,,-99.99,WeatherLink 5.5,2013-11-26 13:10:00,
2013-11-26 08:15:00,28.2,21.0,30.30,SSE,157,0.0,6.0,74,0.00,,,-99.99,WeatherLink 5.5,2013-11-26 13:15:00,
2013-11-26 08:20:00,28.5,21.3,30.28,SSE,157,0.0,6.0,74,0.00,,,-99.99,WeatherLink 5.5,2013-11-26 13:20:00,
2013-11-26 08:25:00,28.7,21.5,30.28,SSE,157,0.0,4.0,74,0.00,,,-99.99,WeatherLink 5.5,2013-11-26 13:25:00,
2013-11-26 08:30:00,28.7,21.5,30.28,SSE,157,0.0,4.0,74,0.00,,,-99.99,WeatherLink 5.5,2013-11-26 13:30:00,
2013-11-26 08:35:00,29.0,21.1,30.29,SSE,157,0.0,1.0,72,0.00,,,-99.99,WeatherLink 5.5,2013-11-26 13:35:00,
2013-11-26 08:40:00,29.1,20.9,30.29,SSE,157,1.0,8.0,71,0.00,,,-99.99,WeatherLink 5.5,2013-11-26 13:40:00,
2013-11-26 08:45:00,29.1,20.9,30.29,SSE,157,1.0,8.0,71,0.00,,,-99.99,WeatherLink 5.5,2013-11-26 13:45:00,
2013-11-26 08:50:00,29.2,20.6,30.28,SE,135,1.0,6.0,70,0.00,,,-99.99,WeatherLink 5.5,2013-11-26 13:50:00,
2013-11-26 08:55:00,29.4,20.8,30.28,SSW,202,1.0,6.0,70,0.00,,,-99.99,WeatherLink 5.5,2013-11-26 13:55:00,
2013-11-26 09:00:00,29.4,20.8,30.28,SSW,202,1.0,6.0,70,0.00,,,-99.99,WeatherLink 5.5,2013-11-26 14:00:00,
2013-11-26 09:05:00,29.5,20.9,30.29,ESE,112,1.0,4.0,70,0.00,,,-99.99,WeatherLink 5.5,2013-11-26 14:05:00,
2013-11-26 09:10:00,29.5,20.6,30.29,SE,135,1.0,6.0,69,0.00,,,-99.99,WeatherLink 5.5,2013-11-26 14:10:00,
2013-11-26 09:15:00,29.5,20.6,30.29,SE,135,1.0,6.0,69,0.00,,,-99.99,WeatherLink 5.5,2013-11-26 14:15:00,
2013-11-26 09:20:00,29.8,20.5,30.29,SE,135,0.0,4.0,68,0.00,,,-99.99,WeatherLink 5.5,2013-11-26 14:20:00,
2013-11-26 09:25:00,30.0,20.7,30.29,SE,135,0.0,1.0,68,0.00,,,-99.99,WeatherLink 5.5,2013-11-26 14:25:00,
2013-11-26 09:30:00,30.0,20.7,30.29,SE,135,0.0,1.0,68,0.00,,,-99.99,WeatherLink 5.5,2013-11-26 14:30:00,
2013-11-26 09:35:00,30.3,20.6,30.30,ESE,112,0.0,6.0,67,0.00,,,-99.99,WeatherLink 5.5,2013-11-26 14:35:00,
2013-11-26 09:40:00,30.4,20.7,30.30,SE,135,0.0,4.0,67,0.00,,,-99.99,WeatherLink 5.5,2013-11-26 14:40:00,
2013-11-26 09:45:00,30.4,20.7,30.30,SE,135,0.0,4.0,67,0.00,,,-99.99,WeatherLink 5.5,2013-11-26 14:45:00,
2013-11-26 09:50:00,30.7,20.7,30.29,SE,135,0.0,2.0,66,0.00,,,-99.99,WeatherLink 5.5,2013-11-26 14:50:00,
2013-11-26 09:55:00,30.9,20.5,30.29,SE,135,1.0,7.0,65,0.00,,,-99.99,WeatherLink 5.5,2013-11-26 14:55:00,
2013-11-26 10:00:00,30.9,20.5,30.29,SE,135,1.0,7.0,65,0.00,,,-99.99,WeatherLink 5.5,2013-11-26 15:00:00,
2013-11-26 10:05:00,31.0,20.2,30.29,SE,135,0.0,4.0,64,0.00,,,-99.99,WeatherLink 5.5,2013-11-26 15:05:00,
2013-11-26 10:10:00,31.2,20.4,30.29,SE,135,0.0,4.0,64,0.00,,,-99.99,WeatherLink 5.5,2013-11-26 15:10:00,
2013-11-26 10:15:00,31.3,20.2,30.28,SE,135,0.0,4.0,63,0.00,,,-99.99,WeatherLink 5.5,2013-11-26 15:15:00,
2013-11-26 10:20:00,31.6,20.4,30.28,SE,135,0.0,6.0,63,0.00,,,-99.99,WeatherLink 5.5,2013-11-26 15:20:00,
2013-11-26 10:25:00,31.8,20.3,30.28,SE,135,0.0,1.0,62,0.00,,,-99.99,WeatherLink 5.5,2013-11-26 15:25:00,
2013-11-26 10:30:00,31.8,20.3,30.28,SE,135,0.0,1.0,62,0.00,,,-99.99,WeatherLink 5.5,2013-11-26 15:30:00,
2013-11-26 10:35:00,32.1,20.2,30.27,SE,135,0.0,2.0,61,0.00,,,-99.99,WeatherLink 5.5,2013-11-26 15:35:00,
2013-11-26 10:40:00,32.2,19.5,30.27,SSW,202,1.0,8.0,59,0.00,,,-99.99,WeatherLink 5.5,2013-11-26 15:40:00,
2013-11-26 10:45:00,32.2,19.5,30.27,SSW,202,1.0,8.0,59,0.00,,,-99.99,WeatherLink 5.5,2013-11-26 15:45:00,
2013-11-26 10:50:00,32.8,20.0,30.27,ESE,112,0.0,1.0,59,0.00,,,-99.99,WeatherLink 5.5,2013-11-26 15:50:00,
2013-11-26 10:55:00,32.9,19.7,30.27,ESE,112,0.0,2.0,58,0.00,,,-99.99,WeatherLink 5.5,2013-11-26 15:55:00,
2013-11-26 11:00:00,32.9,19.7,30.27,ESE,112,0.0,2.0,58,0.00,,,-99.99,WeatherLink 5.5,2013-11-26 16:00:00,
2013-11-26 11:05:00,33.1,19.5,30.27,SSW,202,0.0,2.0,57,0.01,,,-99.99,WeatherLink 5.5,2013-11-26 16:05:00,
2013-11-26 11:10:00,33.1,18.7,30.27,South,180,1.0,7.0,55,0.01,,,-99.99,WeatherLink 5.5,2013-11-26 16:10:00,
2013-11-26 11:15:00,33.1,18.7,30.27,South,180,1.0,7.0,55,0.01,,,-99.99,WeatherLink 5.5,2013-11-26 16:15:00,
2013-11-26 11:20:00,33.2,18.3,30.27,South,180,0.0,2.0,54,0.01,,,-99.99,WeatherLink 5.5,2013-11-26 16:20:00,
2013-11-26 11:25:00,33.4,18.1,30.27,ESE,112,1.0,6.0,53,0.01,,,-99.99,WeatherLink 5.5,2013-11-26 16:25:00,
2013-11-26 11:30:00,33.4,18.1,30.27,ESE,112,1.0,6.0,53,0.01,,,-99.99,WeatherLink 5.5,2013-11-26 16:30:00,
2013-11-26 11:35:00,34.0,17.7,30.25,SSE,157,0.0,6.0,51,0.01,,,-99.99,WeatherLink 5.5,2013-11-26 16:35:00,
2013-11-26 11:40:00,34.1,17.8,30.25,South,180,0.0,4.0,51,0.01,,,-99.99,WeatherLink 5.5,2013-11-26 16:40:00,
2013-11-26 11:45:00,34.1,17.8,30.25,South,180,0.0,4.0,51,0.01,,,-99.99,WeatherLink 5.5,2013-11-26 16:45:00,
2013-11-26 11:50:00,34.4,18.1,30.25,East,90,0.0,4.0,51,0.01,,,-99.99,WeatherLink 5.5,2013-11-26 16:50:00,
2013-11-26 11:55:00,34.6,18.3,30.25,South,180,0.0,4.0,51,0.01,,,-99.99,WeatherLink 5.5,2013-11-26 16:55:00,
2013-11-26 12:00:00,34.6,18.3,30.25,South,180,0.0,4.0,51,0.01,,,-99.99,WeatherLink 5.5,2013-11-26 17:00:00,
2013-11-26 12:05:00,34.7,18.4,30.25,SSE,157,0.0,2.0,51,0.00,,,-99.99,WeatherLink 5.5,2013-11-26 17:05:00,
2013-11-26 12:10:00,34.7,17.5,30.25,SE,135,0.0,4.0,49,0.00,,,-99.99,WeatherLink 5.5,2013-11-26 17:10:00,
2013-11-26 12:15:00,34.7,17.5,30.25,SE,135,0.0,4.0,49,0.00,,,-99.99,WeatherLink 5.5,2013-11-26 17:15:00,
2013-11-26 12:20:00,34.9,17.7,30.24,North,-999,0.0,0.0,49,0.00,,,-99.99,WeatherLink 5.5,2013-11-26 17:20:00,
2013-11-26 12:25:00,34.9,18.1,30.24,North,-999,0.0,0.0,50,0.00,,,-99.99,WeatherLink 5.5,2013-11-26 17:25:00,
2013-11-26 12:30:00,34.9,18.1,30.24,North,-999,0.0,0.0,50,0.00,,,-99.99,WeatherLink 5.5,2013-11-26 17:30:00,
2013-11-26 12:35:00,35.0,17.7,30.25,SE,135,0.0,1.0,49,0.00,,,-99.99,WeatherLink 5.5,2013-11-26 17:35:00,
2013-11-26 12:40:00,35.0,17.7,30.25,North,-999,0.0,0.0,49,0.00,,,-99.99,WeatherLink 5.5,2013-11-26 17:40:00,
2013-11-26 12:45:00,35.0,17.7,30.25,North,-999,0.0,0.0,49,0.00,,,-99.99,WeatherLink 5.5,2013-11-26 17:45:00,
2013-11-26 12:50:00,35.2,17.9,30.25,SE,135,0.0,4.0,49,0.00,,,-99.99,WeatherLink 5.5,2013-11-26 17:50:00,
2013-11-26 12:55:00,35.2,17.4,30.25,North,-999,0.0,0.0,48,0.00,,,-99.99,WeatherLink 5.5,2013-11-26 17:55:00,
2013-11-26 13:00:00,35.2,17.4,30.25,North,-999,0.0,0.0,48,0.00,,,-99.99,WeatherLink 5.5,2013-11-26 18:00:00,
2013-11-26 13:05:00,35.3,18.0,30.24,SE,135,0.0,1.0,49,0.00,,,-99.99,WeatherLink 5.5,2013-11-26 18:05:00,
2013-11-26 13:10:00,35.5,18.2,30.24,SE,135,0.0,1.0,49,0.00,,,-99.99,WeatherLink 5.5,2013-11-26 18:10:00,
2013-11-26 13:15:00,35.5,18.2,30.24,SE,135,0.0,1.0,49,0.00,,,-99.99,WeatherLink 5.5,2013-11-26 18:15:00,
2013-11-26 13:20:00,35.6,17.8,30.24,SE,135,0.0,1.0,48,0.00,,,-99.99,WeatherLink 5.5,2013-11-26 18:20:00,
2013-11-26 13:25:00,35.6,17.3,30.24,ESE,112,1.0,4.0,47,0.00,,,-99.99,WeatherLink 5.5,2013-11-26 18:25:00,
2013-11-26 13:30:00,35.6,17.3,30.24,ESE,112,1.0,4.0,47,0.00,,,-99.99,WeatherLink 5.5,2013-11-26 18:30:00,
2013-11-26 13:35:00,35.9,18.1,30.23,North,-999,0.0,0.0,48,0.00,,,-99.99,WeatherLink 5.5,2013-11-26 18:35:00,
2013-11-26 13:40:00,35.9,18.6,30.23,North,-999,0.0,0.0,49,0.00,,,-99.99,WeatherLink 5.5,2013-11-26 18:40:00,
2013-11-26 13:45:00,35.9,18.6,30.23,North,-999,0.0,0.0,49,0.00,,,-99.99,WeatherLink 5.5,2013-11-26 18:45:00,
2013-11-26 13:50:00,36.0,17.2,30.23,North,-999,0.0,0.0,46,0.00,,,-99.99,WeatherLink 5.5,2013-11-26 18:50:00,
2013-11-26 13:55:00,36.2,17.9,30.23,North,-999,0.0,0.0,47,0.00,,,-99.99,WeatherLink 5.5,2013-11-26 18:55:00,
2013-11-26 14:00:00,36.2,17.9,30.23,North,-999,0.0,0.0,47,0.00,,,-99.99,WeatherLink 5.5,2013-11-26 19:00:00,
2013-11-26 14:05:00,36.2,17.9,30.23,North,-999,0.0,0.0,47,0.00,,,-99.99,WeatherLink 5.5,2013-11-26 19:05:00,
2013-11-26 14:10:00,36.3,18.5,30.23,North,-999,0.0,0.0,48,0.00,,,-99.99,WeatherLink 5.5,2013-11-26 19:10:00,
2013-11-26 14:15:00,36.3,18.5,30.23,North,-999,0.0,0.0,48,0.00,,,-99.99,WeatherLink 5.5,2013-11-26 19:15:00,
2013-11-26 14:20:00,36.5,18.6,30.22,North,-999,0.0,0.0,48,0.00,,,-99.99,WeatherLink 5.5,2013-11-26 19:20:00,
2013-11-26 14:25:00,36.5,19.1,30.22,North,-999,0.0,0.0,49,0.00,,,-99.99,WeatherLink 5.5,2013-11-26 19:25:00,
2013-11-26 14:30:00,36.5,19.1,30.22,North,-999,0.0,0.0,49,0.00,,,-99.99,WeatherLink 5.5,2013-11-26 19:30:00,
2013-11-26 14:35:00,36.6,18.7,30.23,North,-999,0.0,0.0,48,0.00,,,-99.99,WeatherLink 5.5,2013-11-26 19:35:00,
2013-11-26 14:40:00,36.6,18.7,30.23,North,-999,0.0,0.0,48,0.00,,,-99.99,WeatherLink 5.5,2013-11-26 19:40:00,
2013-11-26 14:45:00,36.6,18.7,30.23,North,-999,0.0,0.0,48,0.00,,,-99.99,WeatherLink 5.5,2013-11-26 19:45:00,
2013-11-26 14:50:00,36.6,18.2,30.23,North,-999,0.0,0.0,47,0.00,,,-99.99,WeatherLink 5.5,2013-11-26 19:50:00,
2013-11-26 14:55:00,36.6,18.2,30.23,North,-999,0.0,0.0,47,0.00,,,-99.99,WeatherLink 5.5,2013-11-26 19:55:00,
2013-11-26 15:00:00,36.6,18.2,30.23,North,-999,0.0,0.0,47,0.00,,,-99.99,WeatherLink 5.5,2013-11-26 20:00:00,
2013-11-26 15:05:00,36.5,18.2,30.23,North,-999,0.0,0.0,47,0.00,,,-99.99,WeatherLink 5.5,2013-11-26 20:05:00,
2013-11-26 15:10:00,36.3,18.0,30.23,North,-999,0.0,0.0,47,0.00,,,-99.99,WeatherLink 5.5,2013-11-26 20:10:00,
2013-11-26 15:15:00,36.3,18.0,30.23,North,-999,0.0,0.0,47,0.00,,,-99.99,WeatherLink 5.5,2013-11-26 20:15:00,
2013-11-26 15:20:00,36.3,18.0,30.23,North,-999,0.0,0.0,47,0.00,,,-99.99,WeatherLink 5.5,2013-11-26 20:20:00,
2013-11-26 15:25:00,36.5,18.6,30.23,North,-999,0.0,0.0,48,0.00,,,-99.99,WeatherLink 5.5,2013-11-26 20:25:00,
2013-11-26 15:30:00,36.5,18.6,30.23,North,-999,0.0,0.0,48,0.00,,,-99.99,WeatherLink 5.5,2013-11-26 20:30:00,
2013-11-26 15:35:00,36.5,18.6,30.24,North,-999,0.0,0.0,48,0.00,,,-99.99,WeatherLink 5.5,2013-11-26 20:35:00,
2013-11-26 15:40:00,36.5,18.6,30.24,North,-999,0.0,0.0,48,0.00,,,-99.99,WeatherLink 5.5,2013-11-26 20:40:00,
2013-11-26 15:45:00,36.5,18.6,30.24,North,-999,0.0,0.0,48,0.00,,,-99.99,WeatherLink 5.5,2013-11-26 20:45:00,
2013-11-26 15:50:00,36.3,18.5,30.23,North,-999,0.0,0.0,48,0.00,,,-99.99,WeatherLink 5.5,2013-11-26 20:50:00,
2013-11-26 15:55:00,36.3,18.9,30.23,North,-999,0.0,0.0,49,0.00,,,-99.99,WeatherLink 5.5,2013-11-26 20:55:00,
2013-11-26 16:00:00,36.3,18.9,30.23,North,-999,0.0,0.0,49,0.00,,,-99.99,WeatherLink 5.5,2013-11-26 21:00:00,
2013-11-26 16:05:00,36.2,18.9,30.24,North,-999,0.0,0.0,49,0.00,,,-99.99,WeatherLink 5.5,2013-11-26 21:05:00,
2013-11-26 16:10:00,36.0,19.1,30.24,North,-999,0.0,0.0,50,0.00,,,-99.99,WeatherLink 5.5,2013-11-26 21:10:00,
2013-11-26 16:15:00,36.0,19.1,30.24,North,-999,0.0,0.0,50,0.00,,,-99.99,WeatherLink 5.5,2013-11-26 21:15:00,
2013-11-26 16:20:00,35.9,19.5,30.23,North,-999,0.0,0.0,51,0.00,,,-99.99,WeatherLink 5.5,2013-11-26 21:20:00,
2013-11-26 16:25:00,35.7,19.8,30.23,North,-999,0.0,0.0,52,0.00,,,-99.99,WeatherLink 5.5,2013-11-26 21:25:00,
2013-11-26 16:30:00,35.7,19.8,30.23,North,-999,0.0,0.0,52,0.00,,,-99.99,WeatherLink 5.5,2013-11-26 21:30:00,
2013-11-26 16:35:00,35.6,19.7,30.24,North,-999,0.0,0.0,52,0.00,,,-99.99,WeatherLink 5.5,2013-11-26 21:35:00,
2013-11-26 16:40:00,35.5,19.6,30.24,North,-999,0.0,0.0,52,0.00,,,-99.99,WeatherLink 5.5,2013-11-26 21:40:00,
2013-11-26 16:45:00,35.5,19.6,30.24,North,-999,0.0,0.0,52,0.00,,,-99.99,WeatherLink 5.5,2013-11-26 21:45:00,
2013-11-26 16:50:00,35.5,20.0,30.24,North,-999,0.0,0.0,53,0.00,,,-99.99,WeatherLink 5.5,2013-11-26 21:50:00,
2013-11-26 16:55:00,35.3,19.4,30.24,North,-999,0.0,0.0,52,0.00,,,-99.99,WeatherLink 5.5,2013-11-26 21:55:00,
2013-11-26 17:00:00,35.3,19.4,30.24,North,-999,0.0,0.0,52,0.00,,,-99.99,WeatherLink 5.5,2013-11-26 22:00:00,
2013-11-26 17:05:00,35.3,19.0,30.23,North,-999,0.0,0.0,51,0.00,,,-99.99,WeatherLink 5.5,2013-11-26 22:05:00,
2013-11-26 17:10:00,35.3,19.0,30.23,North,-999,0.0,0.0,51,0.00,,,-99.99,WeatherLink 5.5,2013-11-26 22:10:00,
2013-11-26 17:15:00,35.3,19.0,30.23,North,-999,0.0,0.0,51,0.00,,,-99.99,WeatherLink 5.5,2013-11-26 22:15:00,
2013-11-26 17:25:00,35.3,19.9,30.22,North,-999,0.0,0.0,53,0.00,,,-99.99,WeatherLink 5.5,2013-11-26 22:25:00,
2013-11-26 17:30:00,35.3,19.9,30.22,North,-999,0.0,0.0,53,0.00,,,-99.99,WeatherLink 5.5,2013-11-26 22:30:00,
2013-11-26 17:35:00,35.3,19.4,30.22,North,-999,0.0,0.0,52,0.00,,,-99.99,WeatherLink 5.5,2013-11-26 22:35:00,
2013-11-26 17:40:00,35.3,19.4,30.22,North,-999,0.0,0.0,52,0.00,,,-99.99,WeatherLink 5.5,2013-11-26 22:40:00,
2013-11-26 17:45:00,35.3,19.4,30.22,North,-999,0.0,0.0,52,0.00,,,-99.99,WeatherLink 5.5,2013-11-26 22:45:00,
2013-11-26 17:50:00,35.2,20.2,30.22,North,-999,0.0,0.0,54,0.00,,,-99.99,WeatherLink 5.5,2013-11-26 22:50:00,
2013-11-26 17:55:00,35.2,20.2,30.22,North,-999,0.0,0.0,54,0.00,,,-99.99,WeatherLink 5.5,2013-11-26 22:55:00,
2013-11-26 18:00:00,35.2,20.2,30.22,North,-999,0.0,0.0,54,0.00,,,-99.99,WeatherLink 5.5,2013-11-26 23:00:00,
2013-11-26 18:05:00,35.0,20.9,30.21,North,-999,0.0,0.0,56,0.00,,,-99.99,WeatherLink 5.5,2013-11-26 23:05:00,
2013-11-26 18:10:00,34.9,20.8,30.21,North,-999,0.0,0.0,56,0.00,,,-99.99,WeatherLink 5.5,2013-11-26 23:10:00,
2013-11-26 18:15:00,34.9,20.8,30.21,North,-999,0.0,0.0,56,0.00,,,-99.99,WeatherLink 5.5,2013-11-26 23:15:00,
2013-11-26 18:20:00,34.7,21.8,30.21,North,-999,0.0,0.0,59,0.00,,,-99.99,WeatherLink 5.5,2013-11-26 23:20:00,
2013-11-26 18:25:00,34.6,22.1,30.21,North,-999,0.0,0.0,60,0.00,,,-99.99,WeatherLink 5.5,2013-11-26 23:25:00,
2013-11-26 18:30:00,34.6,22.1,30.21,North,-999,0.0,0.0,60,0.00,,,-99.99,WeatherLink 5.5,2013-11-26 23:30:00,
2013-11-26 18:35:00,34.1,22.4,30.21,North,-999,0.0,0.0,62,0.00,,,-99.99,WeatherLink 5.5,2013-11-26 23:35:00,
2013-11-26 18:40:00,34.0,22.7,30.21,North,-999,0.0,0.0,63,0.00,,,-99.99,WeatherLink 5.5,2013-11-26 23:40:00,
2013-11-26 18:45:00,34.0,22.7,30.21,North,-999,0.0,0.0,63,0.00,,,-99.99,WeatherLink 5.5,2013-11-26 23:45:00,
2013-11-26 18:50:00,33.5,23.0,30.20,North,-999,0.0,0.0,65,0.00,,,-99.99,WeatherLink 5.5,2013-11-26 23:50:00,
2013-11-26 18:55:00,33.5,23.7,30.20,North,-999,0.0,0.0,67,0.00,,,-99.99,WeatherLink 5.5,2013-11-26 23:55:00,
2013-11-26 19:00:00,33.5,23.7,30.20,North,-999,0.0,0.0,67,0.00,,,-99.99,WeatherLink 5.5,2013-11-27 00:00:00,
2013-11-26 19:05:00,33.2,24.1,30.20,North,-999,0.0,0.0,69,0.00,,,-99.99,WeatherLink 5.5,2013-11-27 00:05:00,
2013-11-26 19:10:00,33.2,24.5,30.20,North,-999,0.0,0.0,70,0.00,,,-99.99,WeatherLink 5.5,2013-11-27 00:10:00,
2013-11-26 19:15:00,33.2,24.5,30.20,North,-999,0.0,0.0,70,0.00,,,-99.99,WeatherLink 5.5,2013-11-27 00:15:00,
2013-11-26 19:20:00,33.2,25.1,30.21,North,-999,0.0,0.0,72,0.00,,,-99.99,WeatherLink 5.5,2013-11-27 00:20:00,
2013-11-26 19:25:00,33.2,25.5,30.21,North,-999,0.0,0.0,73,0.01,,,-99.99,WeatherLink 5.5,2013-11-27 00:25:00,
2013-11-26 19:30:00,33.2,25.5,30.21,North,-999,0.0,0.0,73,0.01,,,-99.99,WeatherLink 5.5,2013-11-27 00:30:00,
2013-11-26 19:35:00,33.1,25.7,30.20,North,-999,0.0,0.0,74,0.01,,,-99.99,WeatherLink 5.5,2013-11-27 00:35:00,
2013-11-26 19:40:00,32.9,25.8,30.20,SE,135,0.0,1.0,75,0.01,,,-99.99,WeatherLink 5.5,2013-11-27 00:40:00,
2013-11-26 19:45:00,32.9,25.8,30.20,SE,135,0.0,1.0,75,0.01,,,-99.99,WeatherLink 5.5,2013-11-27 00:45:00,
2013-11-26 19:50:00,32.8,26.1,30.20,North,-999,0.0,0.0,76,0.02,,,-99.99,WeatherLink 5.5,2013-11-27 00:50:00,
2013-11-26 19:55:00,32.8,26.1,30.20,North,-999,0.0,0.0,76,0.02,,,-99.99,WeatherLink 5.5,2013-11-27 00:55:00,
2013-11-26 20:00:00,32.8,26.1,30.20,North,-999,0.0,0.0,76,0.02,,,-99.99,WeatherLink 5.5,2013-11-27 01:00:00,
2013-11-26 20:05:00,32.8,26.4,30.20,North,-999,0.0,0.0,77,0.02,,,-99.99,WeatherLink 5.5,2013-11-27 01:05:00,
2013-11-26 20:10:00,32.8,26.4,30.20,North,-999,0.0,0.0,77,0.03,,,-99.99,WeatherLink 5.5,2013-11-27 01:10:00,
2013-11-26 20:15:00,32.8,26.4,30.20,North,-999,0.0,0.0,77,0.03,,,-99.99,WeatherLink 5.5,2013-11-27 01:15:00,
2013-11-26 20:20:00,32.8,26.7,30.18,North,-999,0.0,0.0,78,0.03,,,-99.99,WeatherLink 5.5,2013-11-27 01:20:00,
2013-11-26 20:25:00,32.8,26.7,30.18,North,-999,0.0,0.0,78,0.02,,,-99.99,WeatherLink 5.5,2013-11-27 01:25:00,
2013-11-26 20:30:00,32.8,26.7,30.18,North,-999,0.0,0.0,78,0.02,,,-99.99,WeatherLink 5.5,2013-11-27 01:30:00,
2013-11-26 20:35:00,32.8,26.7,30.18,North,-999,0.0,0.0,78,0.03,,,-99.99,WeatherLink 5.5,2013-11-27 01:35:00,
2013-11-26 20:40:00,32.8,26.7,30.18,North,-999,0.0,0.0,78,0.03,,,-99.99,WeatherLink 5.5,2013-11-27 01:40:00,
2013-11-26 20:45:00,32.8,26.7,30.18,North,-999,0.0,0.0,78,0.03,,,-99.99,WeatherLink 5.5,2013-11-27 01:45:00,
2013-11-26 20:50:00,32.8,27.0,30.17,North,-999,0.0,0.0,79,0.03,,,-99.99,WeatherLink 5.5,2013-11-27 01:50:00,
2013-11-26 20:55:00,32.8,27.0,30.17,North,-999,0.0,0.0,79,0.03,,,-99.99,WeatherLink 5.5,2013-11-27 01:55:00,
2013-11-26 21:00:00,32.8,27.0,30.17,North,-999,0.0,0.0,79,0.03,,,-99.99,WeatherLink 5.5,2013-11-27 02:00:00,
2013-11-26 21:05:00,32.6,27.1,30.16,North,-999,0.0,0.0,80,0.03,,,-99.99,WeatherLink 5.5,2013-11-27 02:05:00,
2013-11-26 21:10:00,32.6,27.1,30.16,North,-999,0.0,0.0,80,0.02,,,-99.99,WeatherLink 5.5,2013-11-27 02:10:00,
2013-11-26 21:15:00,32.6,27.1,30.16,North,-999,0.0,0.0,80,0.02,,,-99.99,WeatherLink 5.5,2013-11-27 02:15:00,
2013-11-26 21:20:00,32.8,27.3,30.16,North,-999,0.0,0.0,80,0.03,,,-99.99,WeatherLink 5.5,2013-11-27 02:20:00,
2013-11-26 21:25:00,32.8,27.3,30.16,North,-999,0.0,0.0,80,0.03,,,-99.99,WeatherLink 5.5,2013-11-27 02:25:00,
2013-11-26 21:30:00,32.8,27.3,30.16,North,-999,0.0,0.0,80,0.03,,,-99.99,WeatherLink 5.5,2013-11-27 02:30:00,
2013-11-26 21:35:00,32.8,27.3,30.15,North,-999,0.0,0.0,80,0.02,,,-99.99,WeatherLink 5.5,2013-11-27 02:35:00,
2013-11-26 21:40:00,32.8,27.6,30.15,North,-999,0.0,0.0,81,0.02,,,-99.99,WeatherLink 5.5,2013-11-27 02:40:00,
2013-11-26 21:45:00,32.8,27.6,30.15,North,-999,0.0,0.0,81,0.02,,,-99.99,WeatherLink 5.5,2013-11-27 02:45:00,
2013-11-26 21:50:00,32.8,27.6,30.13,North,-999,0.0,0.0,81,0.01,,,-99.99,WeatherLink 5.5,2013-11-27 02:50:00,
2013-11-26 21:55:00,32.8,27.6,30.13,North,-999,0.0,0.0,81,0.01,,,-99.99,WeatherLink 5.5,2013-11-27 02:55:00,
2013-11-26 22:00:00,32.8,27.6,30.13,North,-999,0.0,0.0,81,0.01,,,-99.99,WeatherLink 5.5,2013-11-27 03:00:00,
2013-11-26 22:05:00,32.8,27.6,30.12,North,-999,0.0,0.0,81,0.02,,,-99.99,WeatherLink 5.5,2013-11-27 03:05:00,
2013-11-26 22:10:00,32.8,27.6,30.12,North,-999,0.0,0.0,81,0.02,,,-99.99,WeatherLink 5.5,2013-11-27 03:10:00,
2013-11-26 22:15:00,32.8,27.6,30.12,North,-999,0.0,0.0,81,0.02,,,-99.99,WeatherLink 5.5,2013-11-27 03:15:00,
2013-11-26 22:20:00,32.8,27.6,30.10,North,-999,0.0,0.0,81,0.01,,,-99.99,WeatherLink 5.5,2013-11-27 03:20:00,
2013-11-26 22:25:00,32.8,27.9,30.10,North,-999,0.0,0.0,82,0.01,,,-99.99,WeatherLink 5.5,2013-11-27 03:25:00,
2013-11-26 22:30:00,32.8,27.9,30.10,North,-999,0.0,0.0,82,0.01,,,-99.99,WeatherLink 5.5,2013-11-27 03:30:00,
2013-11-26 22:35:00,32.8,27.9,30.09,North,-999,0.0,0.0,82,0.02,,,-99.99,WeatherLink 5.5,2013-11-27 03:35:00,
2013-11-26 22:40:00,32.8,27.9,30.09,North,-999,0.0,0.0,82,0.03,,,-99.99,WeatherLink 5.5,2013-11-27 03:40:00,
2013-11-26 22:45:00,32.8,27.9,30.09,North,-999,0.0,0.0,82,0.03,,,-99.99,WeatherLink 5.5,2013-11-27 03:45:00,
2013-11-26 22:50:00,32.8,27.9,30.09,North,-999,0.0,0.0,82,0.03,,,-99.99,WeatherLink 5.5,2013-11-27 03:50:00,
2013-11-26 22:55:00,32.8,27.9,30.09,North,-999,0.0,0.0,82,0.04,,,-99.99,WeatherLink 5.5,2013-11-27 03:55:00,
2013-11-26 23:00:00,32.8,27.9,30.09,North,-999,0.0,0.0,82,0.04,,,-99.99,WeatherLink 5.5,2013-11-27 04:00:00,
2013-11-26 23:05:00,32.9,28.0,30.07,North,-999,0.0,0.0,82,0.03,,,-99.99,WeatherLink 5.5,2013-11-27 04:05:00,
2013-11-26 23:10:00,32.9,28.0,30.07,North,-999,0.0,0.0,82,0.04,,,-99.99,WeatherLink 5.5,2013-11-27 04:10:00,
2013-11-26 23:15:00,32.9,28.0,30.07,North,-999,0.0,0.0,82,0.04,,,-99.99,WeatherLink 5.5,2013-11-27 04:15:00,
2013-11-26 23:20:00,32.9,28.0,30.06,North,-999,0.0,0.0,82,0.04,,,-99.99,WeatherLink 5.5,2013-11-27 04:20:00,
2013-11-26 23:25:00,32.9,28.0,30.06,SE,135,0.0,1.0,82,0.05,,,-99.99,WeatherLink 5.5,2013-11-27 04:25:00,
2013-11-26 23:30:00,32.9,28.0,30.06,SE,135,0.0,1.0,82,0.05,,,-99.99,WeatherLink 5.5,2013-11-27 04:30:00,
2013-11-26 23:35:00,32.8,28.2,30.04,North,-999,0.0,0.0,83,0.05,,,-99.99,WeatherLink 5.5,2013-11-27 04:35:00,
2013-11-26 23:40:00,32.8,28.2,30.04,North,-999,0.0,0.0,83,0.04,,,-99.99,WeatherLink 5.5,2013-11-27 04:40:00,
2013-11-26 23:45:00,32.8,28.2,30.04,North,-999,0.0,0.0,83,0.04,,,-99.99,WeatherLink 5.5,2013-11-27 04:45:00,
2013-11-26 23:50:00,32.8,28.2,30.03,North,-999,0.0,0.0,83,0.05,,,-99.99,WeatherLink 5.5,2013-11-27 04:50:00,
2013-11-26 23:55:00,32.8,28.2,30.03,SE,135,0.0,1.0,83,0.05,,,-99.99,WeatherLink 5.5,2013-11-27 04:55:00,